• Processing (Info)

  • MPEC 2003-L14 : 2003 LW1

    The following Minor Planet Electronic Circular may be linked-to from your own Web pages, but must not otherwise be redistributed electronically.

    A form allowing access to any MPEC is at the bottom of this page.


    Read MPEC 2003-L13 Read MPEC 2003-L15


    M.P.E.C. 2003-L14                                Issued 2003 June 4, 15:37 UT
    
         The Minor Planet Electronic Circulars contain information on unusual
             minor planets and routine data on comets.  They are published
       on behalf of Commission 20 of the International Astronomical Union by the
              Minor Planet Center, Smithsonian Astrophysical Observatory,
                              Cambridge, MA 02138, U.S.A.
    
                 Prepared using the Tamkin Foundation Computer Network
    
                                  MPC@CFA.HARVARD.EDU
              URL http://cfa-www.harvard.edu/iau/mpc.html  ISSN 1523-6714
    
                                       2003 LW1
    
    Observations:
         K03L01W* C2003 06 03.30819 16 22 17.84 -06 45 54.6          17.9        704
         K03L01W  C2003 06 03.31863 16 22 22.21 -06 48 30.3          18.0        704
         K03L01W  C2003 06 03.32893 16 22 26.51 -06 51 05.1          18.3        704
         K03L01W  C2003 06 03.33924 16 22 30.86 -06 53 39.4          17.9        704
         K03L01W  C2003 06 03.34969 16 22 35.28 -06 56 16.3          18.1        704
         K03L01W  C2003 06 03.87336 16 27 03.80 -09 13 23.9                      246
         K03L01W  C2003 06 03.87382 16 27 03.97 -09 13 29.8                      246
         K03L01W  C2003 06 03.87458 16 27 04.36 -09 13 43.1                      246
         K03L01W  C2003 06 03.87505 16 27 04.56 -09 13 49.9                      246
         K03L01W  C2003 06 03.87556 16 27 04.83 -09 13 59.3                      246
         K03L01W  C2003 06 03.87612 16 27 05.09 -09 14 09.0                      246
         K03L01W  C2003 06 03.87682 16 27 05.43 -09 14 20.2                      246
         K03L01W  C2003 06 03.87773 16 27 05.89 -09 14 35.1                      246
         K03L01W  C2003 06 03.93484 16 27 35.07 -09 29 53.7          17.1 R      176
         K03L01W  C2003 06 03.93565 16 27 35.46 -09 30 07.0          17.1 R      176
         K03L01W  C2003 06 03.93646 16 27 35.84 -09 30 20.3          17.3 R      176
         K03L01W  C2003 06 03.93715 16 27 36.17 -09 30 31.6          17.1 R      176
         K03L01W  C2003 06 03.93808 16 27 36.62 -09 30 46.8          17.2 R      176
         K03L01W  C2003 06 03.94468 16 27 37.51 -09 32 51.0          17.1 R      118
         K03L01W  C2003 06 03.94603 16 27 38.14 -09 33 13.6                      118
         K03L01W  C2003 06 03.94964 16 27 40.22 -09 34 15.3                      557
         K03L01W  C2003 06 03.95004 16 27 40.46 -09 34 21.4                      557
         K03L01W  C2003 06 03.95045 16 27 40.62 -09 34 28.8                      557
         K03L01W  C2003 06 03.95059 16 27 40.35 -09 34 28.0                      118
         K03L01W  C2003 06 03.95085 16 27 40.84 -09 34 34.9                      557
         K03L01W  C2003 06 03.95126 16 27 41.00 -09 34 41.8                      557
         K03L01W  C2003 06 03.95166 16 27 41.21 -09 34 48.7                      557
         K03L01W  C2003 06 03.95207 16 27 41.42 -09 34 55.3                      557
         K03L01W  C2003 06 03.95247 16 27 41.60 -09 35 01.9          17.8 V      557
         K03L01W  C2003 06 03.95288 16 27 41.77 -09 35 09.0                      557
         K03L01W  C2003 06 03.95328 16 27 41.99 -09 35 15.1                      557
         K03L01W  C2003 06 04.16632 16 29 44.59 -10 33 55.4          16.9 R      G90
         K03L01W  C2003 06 04.17012 16 29 46.45 -10 34 59.8          16.8 R      G90
         K03L01W  C2003 06 04.17216 16 29 47.39 -10 35 33.1          16.9 R      G90
         K03L01W  C2003 06 04.21619 16 30 09.53 -10 48 07.7          17.4 R      854
         K03L01W  C2003 06 04.21688 16 30 09.87 -10 48 20.0          17.4 R      854
         K03L01W  C2003 06 04.21896 16 30 10.87 -10 48 55.4          17.1 R      854
         K03L01W  C2003 06 04.36887 16 31 37.38 -11 28 21.1          17.3 R      474
         K03L01W  C2003 06 04.36956 16 31 37.72 -11 28 32.6          17.2 R      474
         K03L01W  C2003 06 04.37014 16 31 38.05 -11 28 42.7          17.3 R      474
         K03L01W  C2003 06 04.37083 16 31 38.43 -11 28 55.2          17.2 R      474
         K03L01W  C2003 06 04.44907 16 32 19.94 -11 51 55.6          16.7 R      474
         K03L01W  C2003 06 04.44977 16 32 20.30 -11 52 07.8          16.8 R      474
         K03L01W  C2003 06 04.45104 16 32 20.98 -11 52 30.7          16.9 R      474
         K03L01W  C2003 06 04.45174 16 32 21.35 -11 52 42.8          17.0 R      474
    
    Observer details:
    118 Modra.  Observers A. Galad, S. Gajdos.  0.6-m f/5.5 reflector + CCD.
    176 Observatori Astronomic de Consell.  Observers A. Lopez, R. Pacheco.
        0.41-m reflector + CCD, 0.2-m f/3.3 Schmidt-Cassegrain + CCD.
    246 Klet Observatory-KLENOT.  Observer M. Tichy.  1.06-m KLENOT Telescope
        + CCD.
    474 Mount John Observatory, Lake Tekapo.  Observers A. C. Gilmore,
        P. M. Kilmartin.  1.0-m f/7.7 reflector + CCD.
    557 Ondrejov.  Observer P. Kusnirak.  0.65-m f/3.6 reflector + CCD.
    704 Lincoln Laboratory ETS, New Mexico.  Observers M. Blythe, F. Shelly,
        M. Bezpalko, R. Huber, L. Manguso, S. Adams, D. Torres, T. Brothers,
        S. Partridge.  Measurers J. Stuart, R. Sayer, J. Evans, P. Hopman.  1.0-m
        f/2.15 reflector + CCD.
    854 Sabino Canyon Observatory, Tucson.  Observer J. E. McGaha.  0.30-m f/10.0
        Schmidt-Cassegrain + CCD.
    G90 Three Buttes Observatory, Tucson.  Observer G. R. Jones.  0.32-m
        Ritchey-Chretien + CCD.
    
    Orbital elements:
    2003 LW1
    Epoch 2003 June 10.0 TT = JDT 2452800.5                 MPC
    M 355.85242              (2000.0)            P               Q
    n   0.31918308     Peri.  198.77904     +0.06236979     +0.97619004
    a   2.1205221      Node    75.21428     -0.88597912     +0.14999293
    e   0.5100501      Incl.   12.40803     -0.45951171     -0.15670077
    P   3.09           H   23.2           G   0.15           U   7
    Residuals in seconds of arc
    030603 704  0.1-  0.1-    030603 176  0.1+  0.6-    030603 557  0.1+  0.1-
    030603 704  0.1+  0.3+    030603 176  0.1+  0.5-    030604 G90  1.5+  1.1-
    030603 704  0.1-  0.3-    030603 176  0.3+  0.4-    030604 G90  0.6+  0.5-
    030603 704  0.1+  0.1-    030603 118  0.0   0.1+    030604 G90  0.8-  1.1+
    030603 704  0.1+  0.2-    030603 118  0.2-  0.3-    030604 854  0.2+  0.3+
    030603 246  0.2+  0.0     030603 557  0.2-  0.2-    030604 854  0.2+  0.2-
    030603 246  0.6-  1.6+    030603 557  0.5+  0.3+    030604 854  0.4-  0.1+
    030603 246  0.2-  0.7+    030603 557  0.0   0.4-    030604 474  0.1+  0.5-
    030603 246  0.6-  1.6+    030603 118  0.1+  0.3+    030604 474  0.3-  0.1+
    030603 246  0.2-  0.5+    030603 557  0.4+  0.1+    030604 474  0.1-  0.2+
    030603 246  0.3-  0.1-    030603 557  0.2-  0.0     030604 474  0.1+  0.2-
    030603 246  0.2-  0.2+    030603 557  0.1+  0.4-    030604 474  0.1-  0.1+
    030603 246  0.1+  0.1+    030603 557  0.3+  0.2-    030604 474  0.2-  0.3+
    030603 176  0.0   0.6-    030603 557  0.1+  0.2-    030604 474  0.1-  0.1-
    030603 176  0.1+  0.6-    030603 557  0.3-  0.6-    030604 474  0.0   0.2+
    
    Ephemeris:
    2003 LW1                 a,e,i = 2.12, 0.51, 12                  q = 1.0389
    Date    TT    R. A. (2000) Decl.     Delta      r     Elong.  Phase     V
    2003 05 31    16 01.99   +04 03.8    0.068    1.075   153.2    25.1    18.7
    2003 06 01    16 07.10   +01 21.1    0.063    1.072   155.8    22.8    18.4
    2003 06 02    16 13.02   -01 48.3    0.059    1.069   158.8    20.0    18.2
    2003 06 03    16 19.95   -05 28.9    0.054    1.066   162.4    16.7    17.9
    2003 06 04    16 28.11   -09 45.4    0.051    1.064   166.7    12.7    17.6
    2003 06 05    16 37.84   -14 41.6    0.047    1.061   171.7     7.9    17.3
    2003 06 06    16 49.56   -20 19.1    0.044    1.059   177.5     2.4    16.8
    2003 06 07    17 03.84   -26 35.2    0.042    1.057   175.9     3.9    16.8
    2003 06 08    17 21.42   -33 20.7    0.040    1.054   168.7    10.9    17.0
    2003 06 09    17 43.26   -40 18.0    0.040    1.052   160.9    18.4    17.2
    2003 06 10    18 10.50   -47 02.4    0.040    1.051   153.1    25.9    17.5
    2003 06 11    18 44.24   -53 06.1    0.041    1.049   145.5    33.3    17.7
    2003 06 12    19 25.02   -58 04.2    0.042    1.047   138.4    40.1    18.0
    2003 06 13    20 11.85   -61 40.0    0.045    1.046   132.1    46.1    18.3
    2003 06 14    21 01.60   -63 49.9    0.048    1.045   126.5    51.4    18.6
    2003 06 15    21 49.82   -64 44.0    0.051    1.043   121.7    55.9    18.9
    2003 06 16    22 32.76   -64 41.2    0.055    1.042   117.7    59.7    19.1
    2003 06 17    23 08.79   -64 01.9    0.059    1.041   114.3    62.8    19.4
    2003 06 18    23 38.05   -63 02.3    0.063    1.041   111.4    65.4    19.6
    2003 06 19    00 01.55   -61 53.7    0.068    1.040   109.0    67.5    19.8
    2003 06 20    00 20.45   -60 42.7    0.072    1.040   107.0    69.2    20.0
    2003 06 21    00 35.77   -59 33.0    0.077    1.039   105.3    70.6    20.2
    2003 06 22    00 48.32   -58 26.7    0.082    1.039   103.9    71.7    20.4
    2003 06 23    00 58.72   -57 24.5    0.087    1.039   102.7    72.6    20.5
    2003 06 24    01 07.43   -56 26.8    0.092    1.039   101.7    73.3    20.7
    2003 06 25    01 14.81   -55 33.5    0.097    1.039   100.9    73.8    20.8
    2003 06 26    01 21.10   -54 44.4    0.102    1.040   100.3    74.2    20.9
    2003 06 27    01 26.53   -53 59.2    0.107    1.040    99.7    74.4    21.0
    2003 06 28    01 31.23   -53 17.7    0.112    1.041    99.3    74.6    21.1
    2003 06 29    01 35.34   -52 39.4    0.117    1.041    99.0    74.6    21.2
    2003 06 30    01 38.95   -52 04.1    0.122    1.042    98.8    74.6    21.3
    
    Timothy B. Spahr             (C) Copyright 2003 MPC           M.P.E.C. 2003-L14
    

    Read MPEC 2003-L13 Read MPEC 2003-L15


    MPEC number:

    Enter an MPEC number in one of the following forms:

    • 1997-B01 (the full form)
    • J97B01 (the packed version of the full form)
    • B01 (the abbreviated form)